Weather History for Clovis, NM

Change the Weather History Date:

Monday, April 29, 2013

  Actual Average Record
Temperature  
Mean Temperature 68 °F -  
Max Temperature 89 °F 77 °F 97 °F (1943)
Min Temperature 48 °F 45 °F 32 °F (1968)
Cooling Degree Days 4    
Growing Degree Days 18 (Base 50)    
Moisture  
Dew Point 29 °F    
Average Humidity 28    
Maximum Humidity 62    
Minimum Humidity 10    
Precipitation  
Precipitation 0.00 in - - ()
Sea Level Pressure  
Sea Level Pressure 29.84 in    
Wind  
Wind Speed 12 mph (SW)    
Max Wind Speed 22 mph    
Max Gust Speed 29 mph    
Visibility 10 miles    
Events      
Averages and records for this station are not official NWS values.
T = Trace of Precipitation, MM = Missing Value Source: NWS Daily Summary

Daily Weather History Graph

Daily Weather History Graph

Search for Another Location

Airport:

Trip Planner

Search our weather history database for the weather conditions in past years. The results will help you decide how hot, cold, wet, or windy it might be!

Date:

Astronomy

Apr. 29, 2013 Rise Set
Actual Time 6:04 AM MDT 7:35 PM MDT
Civil Twilight 5:37 AM MDT 8:02 PM MDT
Nautical Twilight 5:05 AM MDT 8:34 PM MDT
Astronomical Twilight 4:31 AM MDT 9:08 PM MDT
Moon 11:58 PM MDT (4/29) 9:31 AM MDT (4/29)
Length of Visible Light 14h 24m
Length of Day
13h 31m
Waning Gibbous, 79% of the Moon is Illuminated
Apr 29
Waning Gibbous
May 2
Last Quarter
May 9
New
May 17
First Quarter
May 24
Full

Hourly Weather History & Observations

Time (MDT) Temp. Dew Point Humidity Pressure Visibility Wind Dir Wind Speed Gust Speed Precip Events Conditions
12:15 AM 53.6 °F 30.2 °F 41% 29.92 in 10.0 mi South 8.1 mph - N/A   Clear
12:35 AM 53.6 °F 28.4 °F 38% 29.93 in 10.0 mi SSW 5.8 mph - N/A   Clear
12:55 AM 53.6 °F 30.2 °F 41% 29.93 in 10.0 mi SW 6.9 mph - N/A   Clear
1:15 AM 51.8 °F 28.4 °F 41% 29.93 in 10.0 mi South 5.8 mph - N/A   Clear
1:35 AM 53.6 °F 28.4 °F 38% 29.93 in 10.0 mi South 5.8 mph - N/A   Clear
1:55 AM 51.8 °F 28.4 °F 41% 29.93 in 10.0 mi SSW 8.1 mph - N/A   Clear
2:15 AM 51.8 °F 30.2 °F 44% 29.92 in 10.0 mi SSW 11.5 mph - N/A   Clear
2:35 AM 51.8 °F 33.8 °F 50% 29.92 in 10.0 mi SW 10.4 mph - N/A   Clear
2:55 AM 51.8 °F 33.8 °F 50% 29.92 in 10.0 mi SW 9.2 mph - N/A   Clear
3:15 AM 51.8 °F 33.8 °F 50% 29.93 in 10.0 mi SSW 11.5 mph - N/A   Clear
3:35 AM 53.6 °F 35.6 °F 51% 29.93 in 10.0 mi SW 12.7 mph - N/A   Clear
3:55 AM 53.6 °F 35.6 °F 51% 29.93 in 10.0 mi SW 10.4 mph - N/A   Clear
4:15 AM 53.6 °F 35.6 °F 51% 29.93 in 10.0 mi SW 11.5 mph - N/A   Clear
4:35 AM 51.8 °F 35.6 °F 54% 29.92 in 10.0 mi SW 10.4 mph - N/A   Clear
4:55 AM 51.8 °F 35.6 °F 54% 29.92 in 10.0 mi SSW 10.4 mph - N/A   Clear
5:15 AM 51.8 °F 37.4 °F 58% 29.92 in 10.0 mi SW 10.4 mph - N/A   Clear
5:35 AM 50.0 °F 35.6 °F 58% 29.92 in 10.0 mi SSW 9.2 mph - N/A   Clear
5:55 AM 48.2 °F 35.6 °F 62% 29.92 in 10.0 mi SSW 9.2 mph - N/A   Clear
6:15 AM 48.2 °F 35.6 °F 62% 29.92 in 10.0 mi SW 9.2 mph - N/A   Clear
6:35 AM 50.0 °F 37.4 °F 62% 29.92 in 10.0 mi SSW 9.2 mph - N/A   Clear
6:55 AM 53.6 °F 37.4 °F 54% 29.93 in 10.0 mi SSW 9.2 mph - N/A   Clear
7:15 AM 55.4 °F 39.2 °F 54% 29.93 in 10.0 mi SSW 8.1 mph - N/A   Clear
7:35 AM 59.0 °F 41.0 °F 51% 29.93 in 10.0 mi SSW 12.7 mph - N/A   Clear
7:55 AM 62.6 °F 41.0 °F 45% 29.93 in 10.0 mi SSW 11.5 mph - N/A   Clear
8:15 AM 64.4 °F 42.8 °F 45% 29.93 in 10.0 mi SW 16.1 mph - N/A   Clear
8:35 AM 66.2 °F 42.8 °F 43% 29.92 in 10.0 mi SW 20.7 mph - N/A   Clear
8:55 AM 69.8 °F 39.2 °F 33% 29.92 in 10.0 mi SW 17.3 mph - N/A   Clear
9:15 AM 71.6 °F 39.2 °F 31% 29.92 in 10.0 mi SSW 19.6 mph 24.2 mph N/A   Clear
9:35 AM 73.4 °F 37.4 °F 27% 29.91 in 10.0 mi SW 21.9 mph 26.5 mph N/A   Clear
9:55 AM 75.2 °F 37.4 °F 25% 29.91 in 10.0 mi SW 21.9 mph 28.8 mph N/A   Clear
10:15 AM 77.0 °F 35.6 °F 22% 29.90 in 10.0 mi SW 21.9 mph 27.6 mph N/A   Clear
10:35 AM 78.8 °F 33.8 °F 20% 29.90 in 10.0 mi SW 19.6 mph 25.3 mph N/A   Clear
10:55 AM 80.6 °F 30.2 °F 16% 29.90 in 10.0 mi SW 16.1 mph 26.5 mph N/A   Clear
11:15 AM 80.6 °F 28.4 °F 15% 29.90 in 10.0 mi SW 17.3 mph 25.3 mph N/A   Clear
11:35 AM 82.4 °F 28.4 °F 14% 29.89 in 10.0 mi WSW 17.3 mph 23.0 mph N/A   Clear
11:55 AM 82.4 °F 26.6 °F 13% 29.88 in 10.0 mi WSW 19.6 mph 23.0 mph N/A   Clear
12:15 PM 84.2 °F 26.6 °F 12% 29.87 in 10.0 mi WSW 17.3 mph 23.0 mph N/A   Clear
12:35 PM 84.2 °F 24.8 °F 11% 29.86 in 10.0 mi WSW 16.1 mph 23.0 mph N/A   Clear
12:55 PM 86.0 °F 24.8 °F 11% 29.85 in 10.0 mi SSW 15.0 mph 25.3 mph N/A   Clear
1:15 PM 87.8 °F 24.8 °F 10% 29.84 in 10.0 mi SW 13.8 mph 24.2 mph N/A   Clear
1:35 PM 87.8 °F 24.8 °F 10% 29.83 in 10.0 mi WSW 15.0 mph 26.5 mph N/A   Clear
1:55 PM 89.6 °F 26.6 °F 10% 29.82 in 10.0 mi WSW 20.7 mph 28.8 mph N/A   Clear
2:15 PM 87.8 °F 24.8 °F 10% 29.81 in 10.0 mi SSW 17.3 mph 23.0 mph N/A   Clear
2:35 PM 89.6 °F 26.6 °F 10% 29.80 in 10.0 mi WSW 20.7 mph 24.2 mph N/A   Clear
2:55 PM 89.6 °F 26.6 °F 10% 29.79 in 10.0 mi SW 17.3 mph 27.6 mph N/A   Clear
3:15 PM 87.8 °F 24.8 °F 10% 29.78 in 10.0 mi SSW 10.4 mph 23.0 mph N/A   Clear
3:35 PM 87.8 °F 26.6 °F 11% 29.77 in 10.0 mi SW 11.5 mph 17.3 mph N/A   Clear
3:55 PM 89.6 °F 26.6 °F 10% 29.76 in 10.0 mi WSW 6.9 mph - N/A   Clear
4:15 PM 89.6 °F 26.6 °F 10% 29.75 in 10.0 mi WSW 16.1 mph - N/A   Clear
4:35 PM 87.8 °F 26.6 °F 11% 29.75 in 10.0 mi SW 11.5 mph 17.3 mph N/A   Clear
4:55 PM 87.8 °F 26.6 °F 11% 29.74 in 10.0 mi WSW 15.0 mph 18.4 mph N/A   Clear
5:15 PM 87.8 °F 26.6 °F 11% 29.73 in 10.0 mi WSW 15.0 mph 18.4 mph N/A   Clear
5:35 PM 87.8 °F 24.8 °F 10% 29.73 in 10.0 mi WSW 9.2 mph - N/A   Clear
5:55 PM 87.8 °F 24.8 °F 10% 29.72 in 10.0 mi WSW 13.8 mph - N/A   Clear
6:15 PM 86.0 °F 23.0 °F 10% 29.72 in 10.0 mi South 13.8 mph 17.3 mph N/A   Clear
6:35 PM 84.2 °F 24.8 °F 11% 29.71 in 10.0 mi South 10.4 mph - N/A   Clear
6:55 PM 82.4 °F 21.2 °F 10% 29.72 in 10.0 mi SW 10.4 mph - N/A   Clear
7:15 PM 78.8 °F 19.4 °F 11% 29.72 in 10.0 mi South 9.2 mph - N/A   Clear
7:35 PM 73.4 °F 17.6 °F 12% 29.72 in 10.0 mi South 6.9 mph - N/A   Clear
7:55 PM 71.6 °F 15.8 °F 12% 29.72 in 10.0 mi South 10.4 mph - N/A   Clear
8:15 PM 71.6 °F 17.6 °F 13% 29.72 in 10.0 mi South 17.3 mph - N/A   Clear
8:35 PM 73.4 °F 17.6 °F 12% 29.73 in 10.0 mi SSW 11.5 mph - N/A   Clear
8:55 PM 69.8 °F 15.8 °F 13% 29.74 in 10.0 mi SSW 11.5 mph - N/A   Clear
9:35 PM 68.0 °F 17.6 °F 15% 29.75 in 10.0 mi South 18.4 mph - N/A   Clear
9:55 PM 69.8 °F 17.6 °F 14% 29.76 in 10.0 mi South 12.7 mph - N/A   Clear
10:15 PM 69.8 °F 24.8 °F 18% 29.76 in 10.0 mi South 15.0 mph - N/A   Clear
10:35 PM 68.0 °F 26.6 °F 21% 29.76 in 10.0 mi South 17.3 mph - N/A   Clear
10:55 PM 66.2 °F 28.4 °F 24% 29.76 in 10.0 mi South 15.0 mph - N/A   Clear
11:15 PM 66.2 °F 28.4 °F 24% 29.77 in 10.0 mi SSW 15.0 mph - N/A   Clear
11:35 PM 64.4 °F 28.4 °F 26% 29.77 in 10.0 mi South 13.8 mph - N/A   Clear
11:55 PM 64.4 °F 28.4 °F 26% 29.77 in 10.0 mi SSE 10.4 mph - N/A   Clear